STARLINK-1528 (47620 NORAD) Tracking and Keplerian Element Data

This shows tracking and keplerian element data for the satellite.

Feedback or suggestion? Click here.




ElementValue
Catalog47620
NameSTARLINK-1528
Epoch Orbit989
Epoch Day106.16668981
Epoch Year2021
RAAN180.5962
Inclination53.0517
Eccentricity0.0001104
Argument of Perigee79.3458
Mean Anonmoly39.3694
Mean Motion15.06374412
Decay Rate0.0002832
L11 47620U 21012A 21106.16668981 .00028320 00000-0 19138-2 0 9999
L22 47620 53.0517 180.5962 0001104 79.3458 39.3694 15.06374412 9898

Live tracking and technical data element details for STARLINK-1528 (NORAD 47620). STARLINK-1528 can be tracked NOW for your location showing map with azimuth and elevation plus other details from your city location.

Track the satellite on the map from your city or location and see movement details for azimuth, elevation, latitude, longitude, range, height, and movement on the map or in text.







IsCatalogInMostPopularTable: catalog: 47620, numindb: 16
Update: records affected: 1



GetName: 47620 STARLINK-1528

Hit Count: updated at: Fri, 16 Apr 2021 10:17:02 GMT